Regional Weather Roundup
Issued by NWS

Home | Current Version | Previous Version | Text Only | Print | Product List | Glossary On
Versions: 1 2 3 4 5 6 7 8 9 10 11 12 13 14 15 16 17 18 19 20 21 22 23 24 25 26 27 28 29 30 31 32 33 34 35 36 37 38 39 40 41 42 43 44 45 46 47 48 49 50
000
ASUS43 KMPX 281610
RWRMN
WEATHER ROUNDUP FOR MINNESOTA
NATIONAL WEATHER SERVICE TWIN CITIES/CHANHASSEN MN
1100 AM CDT MON JUL 28 2014


NOTE: "FAIR" INDICATES FEW OR NO CLOUDS BELOW 12,000 FEET WITH NO
SIGNIFICANT WEATHER AND/OR OBSTRUCTIONS TO VISIBILITY. N/A MEANS
CURRENT SKY AND/OR WEATHER CONDITIONS ARE NOT AVAILABLE.

MNZ060>063-068>070-281700-
   Twin Cities Metro

CITY           SKY/WX    TMP DP  RH WIND       PRES   REMARKS
TWIN CITIES    CLOUDY    70  56  61 VRB5      30.21S
ST PAUL        CLOUDY    70  55  59 N7        30.20S
CRYSTAL        CLOUDY    72  56  57 NW6       30.20S
LAKEVILLE      CLOUDY    66  57  72 NW6       30.21S
EDEN PRAIRIE   CLOUDY    70  58  65 NW7       30.20S
SOUTH ST PAUL  CLOUDY    69  55  60 CALM      30.20S
LAKE ELMO      CLOUDY    68  57  68 N3        30.22S
$$
MNZ001>005-007-008-013>017-022>024-027-028-281700-
   Northwest Minnesota

CITY           SKY/WX    TMP DP  RH WIND       PRES   REMARKS
BEMIDJI        MOSUNNY   68  55  62 N7        30.24S
HALLOCK        SUNNY     68  55  64 NW10      30.27S
ROSEAU         SUNNY     70  57  64 N7        30.25F
WARROAD        SUNNY     70  57  64 MISG      30.25F
THIEF RVR FALL SUNNY     68  55  64 NW14      30.27S
CROOKSTON      MOSUNNY   66  55  68 N9        30.28F
FOSSTON        PTSUNNY   66  55  68 NW10      30.27S
DETROIT LAKES  MOSUNNY   64  57  77 NW10      30.28S
MOORHEAD       CLOUDY    66  61  82 N8        30.28F
PARK RAPIDS    MOSUNNY   69  53  56 NW9       30.24F
$$
MNZ006-009>011-018-025>026-281700-
   North Central Minnesota

CITY           SKY/WX    TMP DP  RH WIND       PRES   REMARKS
BAUDETTE       SUNNY     70  55  59 NW12      30.24S
FLAG ISLAND    SUNNY     66  54  63 NW10      30.22S
INTL FALLS     MOSUNNY   69  53  56 NW14      30.20S
WASKISH        PTSUNNY   70  55  60 CALM      30.23S
BIG FORK       SUNNY     70  54  56 NW5       30.22S
LONGVILLE      MOSUNNY   66  57  72 W7        30.22F
GRAND RAPIDS   MOSUNNY   68  50  52 NW12      30.22S
CRANE LAKE     SUNNY     68  54  60 NW8       30.19S
ORR            SUNNY     68  52  56 NW8       30.17F
COOK           SUNNY     68  54  60 NW12      30.20S
$$
MNZ012-019>021-037-281700-
   Northeast Minnesota

CITY           SKY/WX    TMP DP  RH WIND       PRES   REMARKS
DULUTH         MOSUNNY   68  53  58 NW9G21    30.18S
ELY            SUNNY     66  52  59 NW10G18   30.16F
HIBBING        SUNNY     70  52  52 N15       30.20F
EVELETH        SUNNY     66  52  59 NW10      30.20S
DULUTH HARBOR  SUNNY     70  55  60 NW8       30.17S
TWO HARBORS    SUNNY     70  54  56 NW8       30.14F
SILVER BAY     SUNNY     70  55  60 NW8       30.13S
GRAND MARAIS     N/A     71  52  50 VRB5      30.09S
G MARAIS ARPRT   N/A     66  48  52 NW10G20   30.14S
$$
MNZ029>031-032-039>041-046>048-054>057-064-281700-
   West Central Minnesota

CITY           SKY/WX    TMP DP  RH WIND       PRES   REMARKS
FERGUS FALLS   CLOUDY    63  55  77 N7        30.27F
WHEATON        PTSUNNY   64  55  72 NW7       30.30S
MORRIS         PTSUNNY   66  57  72 NW9       30.26S
ALEXANDRIA     CLOUDY    65  58  78 NW9       30.27S
ELBOW LAKE     CLOUDY    61  57  86 NW6       30.27S
WADENA         PTSUNNY   66  57  72 NW6       30.24F
GLENWOOD       CLOUDY    64  57  77 NW8       30.26S
APPLETON       MOSUNNY   70  57  64 NW9       30.26S
BENSON         MOSUNNY   70  55  60 NE8       30.26S
ORTONVILLE     SUNNY     70  54  56 N12       30.27F
MADISON        MOSUNNY   70  59  68 NW9       30.27S
WILLMAR        FAIR      72  55  56 N6        30.26S
$$
MNZ033>034-036-042>043-049>051-058-059-281700-
   Central Minnesota

CITY           SKY/WX    TMP DP  RH WIND       PRES   REMARKS
ST CLOUD       CLOUDY    73  57  57 NW7       30.22S
SAUK CENTRE    PTSUNNY   67  57  69 N7        30.25S
PAYNESVILLE    CLOUDY    65  56  70 W7        30.25S
AITKIN         MOSUNNY   72  55  56 N9        30.20F
PINE RIVER     PTSUNNY   70  55  60 NW6       30.25S
BRAINERD       SUNNY     69  52  54 N7        30.22F
STAPLES        MOSUNNY   68  54  60 NW5       30.24S
LONG PRAIRIE   CLOUDY    66  55  68 NW8       30.25F
LITTLE FALLS   SUNNY     70  52  52 NW8       30.23S
LITCHFIELD     CLOUDY    66  63  88 NW8       30.25R
BUFFALO        CLOUDY    69  57  64 NW5       30.23S
MAPLE LAKE     CLOUDY    71  60  69 W7        30.23F
$$
MNZ037-044-045-052-053-281700-
   East Central Minnesota

CITY           SKY/WX    TMP DP  RH WIND       PRES   REMARKS
PRINCETON      CLOUDY    72  57  60 NW3       30.22S
MORA           MOSUNNY   68  54  60 NW5       30.22F
CAMBRIDGE      CLOUDY    72  55  56 NW7       30.20S
RUSH CITY      CLOUDY    68  58  68 NW6       30.21S
MOOSE LAKE     SUNNY     68  54  60 NW6       30.18S
HINCKLEY       FAIR      70  55  60 NW7       30.20S
CLOQUET        SUNNY     70  54  56 NW10      30.19S
MCGREGOR       SUNNY     68  54  60 N8        30.21F
$$
MNZ071>073-080-081-089-090-097-098-281700-
   Southwest Minnesota

CITY           SKY/WX    TMP DP  RH WIND       PRES   REMARKS
MONTEVIDEO     PTSUNNY   70  63  78 N5        30.27S
GRANITE FALLS  CLOUDY    67  59  75 NW6       30.27F
CANBY          CLOUDY    68  57  67 N8        30.29S
MARSHALL       PTSUNNY   66  57  72 N12       30.25F
REDWOOD FALLS  CLOUDY    70  60  70 VRB7      30.25R
OLIVIA         PTSUNNY   70  55  60 N7        30.24S
PIPESTONE      MOSUNNY   66  57  72 NE9       30.27F
WINDOM         PTSUNNY   66  57  72 NW9       30.26S
WORTHINGTON    CLOUDY    64  57  77 NE7       30.27F
JACKSON        CLOUDY    68  55  64 VRB3      30.26S
TRACY          CLOUDY    66  60  81 CALM      30.27S
SLAYTON        CLOUDY    64  60  88 CALM      30.28S
$$
MNZ065>067-074>077-082>085-091>093-281700-
   South Central Minnesota

CITY           SKY/WX    TMP DP  RH WIND       PRES   REMARKS
MANKATO        CLOUDY    66  57  72 NW7       30.23S
NEW ULM        MOSUNNY   68  63  83 N6        30.24R
ST JAMES       PTSUNNY   70  57  64 N8        30.25R
FAIRMONT       CLOUDY    70  57  64 N8        30.24S
GLENCOE        MOSUNNY   67  59  75 NW6       30.22S
FARIBAULT      CLOUDY    72  55  56 W6        30.21F
OWATONNA       CLOUDY    68  57  68 NW9       30.22S
WASECA         CLOUDY    64  55  72 NW8       30.24S
ALBERT LEA     PTSUNNY   70  55  60 N8        30.21F
$$
MNZ078>079-086>088-094>096-281700-
   Southeast Minnesota

CITY           SKY/WX    TMP DP  RH WIND       PRES   REMARKS
ROCHESTER      CLOUDY    68  54  60 N7        30.22S
RED WING       CLOUDY    70  57  64 W3        30.19S
STANTON        CLOUDY    69  57  66 N7        30.20S
DODGE CENTER   CLOUDY    66  57  72 NW7       30.21S
WINONA         SUNNY     70  52  52 CALM      30.19S
AUSTIN         PTSUNNY   68  57  68 NW7       30.20F
PRESTON        CLOUDY    65  59  83 N5        30.21S
$$
ABBREVIATIONS USED IN REMARKS
   TC - TEMPERATURES IN CELSIUS
  WCI - WIND CHILL INDEX
   HX - HEAT INDEX
  VSB - VISIBILITY
$$



USA.gov is the U.S. government's official web portal to all federal, state and local government web resources and services.